CST,Max TemperatureF,Mean TemperatureF,Min TemperatureF,Max Dew PointF,MeanDew PointF,Min DewpointF,Max Humidity, Mean Humidity, Min Humidity, Max Sea Level PressureIn, Mean Sea Level PressureIn, Min Sea Level PressureIn, Max VisibilityMiles, Mean VisibilityMiles, Min VisibilityMiles, Max Wind SpeedMPH, Mean Wind SpeedMPH, Max Gust SpeedMPH,PrecipitationIn, CloudCover, Events, WindDirDegrees
2012-11-1,41,36,32,32,26,12,93,68,41,29.97,29.87,29.82,10,10,7,16,5,22,0.00,8,Rain,334
2012-11-2,42,33,24,28,22,19,87,67,42,30.19,30.08,29.97,10,10,10,9,4,16,0.00,0,,10
2012-11-3,39,30,19,25,22,18,93,76,52,30.26,30.22,30.19,10,10,10,5,0,,0.00,1,,30
2012-11-4,41,28,14,27,20,10,100,80,53,30.26,30.22,30.18,10,10,10,7,0,,0.00,0,,66
2012-11-5,33,22,12,27,20,10,93,83,69,30.25,30.18,30.05,10,10,10,5,0,,0.00,3,,105
2012-11-6,33,30,28,32,31,25,100,96,86,30.04,29.88,29.80,10,4,1,8,2,,0.00,8,Rain-Snow,164
2012-11-7,37,34,32,34,33,32,100,94,87,30.11,30.06,29.92,10,7,0,5,0,,0.00,8,Fog,271
2012-11-8,48,38,28,36,33,28,100,83,62,30.11,30.04,29.96,10,9,5,14,3,20,0.00,4,,200
2012-11-9,48,40,33,37,35,32,100,82,66,30.10,30.07,30.04,10,9,7,14,3,18,0.00,8,,92
2012-11-10,51,43,35,52,42,34,100,96,87,30.08,29.84,29.68,10,4,1,13,8,18,0.04,7,Rain,120
2012-11-11,59,44,28,54,44,25,100,88,63,29.82,29.68,29.62,10,9,2,16,7,28,0.55,8,Rain,220
2012-11-12,26,24,21,23,16,10,86,75,59,30.20,29.97,29.83,10,9,2,18,6,25,0.00,8,Snow,270
2012-11-13,33,27,21,23,19,16,93,73,52,30.38,30.33,30.21,10,10,10,9,4,,0.00,3,,251
2012-11-14,44,37,30,30,27,21,75,68,57,30.37,30.29,30.23,10,10,10,8,2,,0.00,6,,186
2012-11-15,48,37,26,32,29,21,93,72,54,30.38,30.24,30.19,10,10,10,9,3,,0.00,3,,222
2012-11-16,41,29,17,32,24,14,100,80,56,30.50,30.44,30.39,10,10,7,6,1,,0.00,1,,147
2012-11-17,48,40,33,36,34,32,100,84,62,30.44,30.40,30.36,10,5,1,7,3,,0.00,4,,167
2012-11-18,55,44,32,32,32,30,93,67,38,30.36,30.28,30.22,10,8,4,12,3,18,0.00,2,,160
2012-11-19,50,44,37,36,34,32,93,68,54,30.23,30.13,30.06,10,10,10,7,2,,0.00,7,,159
2012-11-20,55,42,28,37,33,27,100,82,51,30.12,30.10,30.06,10,8,0,6,0,,0.00,1,Fog,271
2012-11-21,55,40,24,41,35,23,100,82,58,30.12,29.99,29.87,10,7,0,10,2,17,0.00,2,Fog-Snow,196
2012-11-22,60,45,30,41,38,27,93,66,48,29.86,29.69,29.59,10,10,2,23,10,32,0.00,2,Snow,226
2012-11-23,30,26,21,25,17,12,86,72,59,30.19,29.98,29.72,10,9,3,23,16,34,0.00,8,Snow,317
2012-11-24,26,22,19,21,13,10,93,69,51,30.20,30.07,29.82,10,9,1,10,5,20,0.03,6,Snow,293
2012-11-25,28,26,23,23,20,14,93,80,68,30.03,29.87,29.76,10,9,2,14,4,20,0.00,8,Snow,295
2012-11-26,23,13,3,21,8,0,93,70,50,30.32,30.22,30.04,10,10,4,9,4,16,0.00,2,Snow,318
2012-11-27,30,16,1,21,12,-4,85,70,51,30.30,30.17,30.08,10,10,2,12,3,17,0.00,6,Snow,230
2012-11-28,30,24,19,21,18,12,86,72,59,30.28,30.20,30.13,10,10,10,13,4,17,0.00,2,,267
2012-11-29,35,26,17,27,23,14,100,81,65,30.19,30.13,30.09,10,8,4,12,3,17,0.00,3,,91
2012-11-30,32,29,26,32,26,21,100,90,80,30.22,30.19,30.15,10,8,2,14,8,22,0.00,8,,99